DELTA 1 DEB, 10757

Orbit data source: Space-Track

DELTA 1 DEB, 10757 is space debris in SSO originally from a launch on Thu, 29 Jul 1976 UTC launched from the Air Force Western Test Range (AFWTR). Debris objects in space refer to the collection of defunct objects orbiting the Earth. Examples of debris include non-operational satellites, rocket bodies, and fragments generated from explosions, collisions, or faulty payload assembly.

Loading next visibility...
Identifier
10757, 1976-077BE
Orbit
SSO
Country
Flag of USUS
Related business
Manufacturer
Unknown
Mission
Spacecraft
Bus & Motor
Unknown
Mass
Unknown
Launch date (UTC)
1976-07-29 (49 years ago)
Launch vehicle
Unknown
Launch site
Air Force Western Test Range (AFWTR)
Object type
Payload
Rocket body
Debris
Shape & HBR
Unknown shape, 0.1 m
Radar Cross Section
Small (<0.1 m²)

Expand to show TLE details & history
Last TLE update: 21 hours ago

TLE from 21 hours ago
0 DELTA 1 DEB
1 10757U 76077BE  25346.13699003  .00000407  00000-0  51047-2 0  9998
2 10757 101.9217  44.7494 0225419   8.1137  18.0874 12.00551064161244
Epoch: 2025-12-12T03:17Z
TLE epoch observation values (Epoch: 2025-12-12T03:17:15.938Z)
Latitude
26.43167°
Longitude
-91.64459°
Altitude
1,509.001 km
Speed
7.188 km/s
True Right ascension
02h 35m 01s
True Declination
26° 18' 28"
Sunlit
Object was in full shadow at epoch
Visualization orbit readout
Latitude
Unknown
Longitude
Unknown
Altitude
Unknown
Speed
Unknown
Apparent Right ascension
Unknown
Apparent Declination
Unknown
Sunlit
N/A
Visualization observer readout
Local Sidereal Time
22:58:34
Azimuth
Unknown
Elevation
Unknown
Doppler factor
Unknown
Orbital elements
Apogee altitude
1,857.57 km
Perigee altitude
1,494.458 km
Semi-major axis
8,054.151 km
Eccentricity
0.02254
Inclination
101.9217°
RAAN
44.7494°
Arg. of periapsis
8.1137°
True anomaly
18.91139°
Mean anomaly
18.0874°
Eccentric anomaly
18.49716°
Mean motion
3.00271 °/min
Orbital period
119.89 mins
BSTAR
0.0051047
Loading maneuver chart data...
Computing Atmospheric mass density...
Loading historical data...
Loading historical data...
Loading historical data...
Loading historical data...
Loading historical data...
Loading historical data...
Loading historical data...

Documentation

Showing up to 5 results
|